Regional Weather Roundup
Issued by NWS Albany, NY

Home | Current Version | Previous Version | Text Only | Print | Product List | Glossary On
Versions: 1 2 3 4 5 6 7 8 9 10 11 12 13 14 15 16 17 18 19 20 21 22 23 24 25 26 27 28 29 30 31 32 33 34 35 36 37 38 39 40 41 42 43 44 45 46 47 48 49 50
000
ASUS41 KALY 310010
RWRALY

NEW YORK STATE HOURLY WEATHER ROUNDUP
NATIONAL WEATHER SERVICE ALBANY NY
800 PM EDT MON MAR 30 2015

NOTE: "FAIR" INDICATES FEW OR NO CLOUDS BELOW 12,000 FEET WITH NO
SIGNIFICANT WEATHER AND/OR NO OBSTRUCTIONS TO VISIBILITY.

NYZ032-033-038>043-046>054-057>066-NYZ062>081-310100-
EAST


CITY           SKY/WX    TMP DP  RH WIND       PRES   REMARKS
ALBANY         PTCLDY    39  27  62 W10       29.76S WCI  32
GLENS FALLS    PTCLDY    40  26  57 W9        29.72R WCI  34
POUGHKEEPSIE   CLEAR     45  23  42 W6        29.77R
MONTGOMERY     CLEAR     43  26  51 W3        29.77R
WHITE PLAINS   PTCLDY    46  24  42 W8        29.78R
ISLIP          PTCLDY    46  27  47 W7        29.78R
NEW YORK CITY  PTCLDY    51  23  33 W12       29.79F
CENTRAL PARK   PTCLDY    51  21  30 W7G17     29.82R
$$

NYZ005>009-017-018-044>046-055-056-310100-
CENTRAL


CITY           SKY/WX    TMP DP  RH WIND       PRES   REMARKS
FULTON         CLOUDY    38  31  76 W13G24    29.78R WCI  30
SYRACUSE       MOCLDY    38  32  79 W13       29.79R WCI  30
ROME           MOCLDY    38  29  70 W9        29.77R WCI  31
ELMIRA         CLOUDY    39  33  79 W15       29.83R WCI  31
BINGHAMTON     LGT SNOW  32  30  92 W14G26    29.77S FOG     WCI  22
MONTICELLO     MOCLDY    37  27  65 W10       29.78R WCI  30
$$

NYZ026>034-041>043-310100-
NORTH


CITY           SKY/WX    TMP DP  RH WIND       PRES   REMARKS
WATERTOWN      CLOUDY    37  31  78 SW14G23   29.74R WCI  28
FORT DRUM      NOT AVBL
MASSENA        CLOUDY    37  34  89 W10       29.68R WCI  30
SARANAC LAKE   CLOUDY    32  27  81 W10G22    29.60R WCI  24
PLATTSBURGH    MOCLDY    37  30  75 VRB6      29.64R WCI  32
$$

NYZ001>004-010>016-019>021-310100-
WEST


CITY           SKY/WX    TMP DP  RH WIND       PRES   REMARKS
NIAGARA FALLS  PTCLDY    35  24  64 NW16      29.86R WCI  25
BUFFALO        PTCLDY    37  24  59 W16G28    29.86R WCI  28
DUNKIRK        CLOUDY    38  32  79 W5        29.90R WCI  34
JAMESTOWN      CLOUDY    36  28  75 NW10      29.85F WCI  28
WELLSVILLE     FLURRIES  34  31  88 NW13      29.83R WCI  25
ROCHESTER      MOCLDY    38  33  82 W13       29.82R WCI  30
PENN YAN       CLOUDY    36  30  79 W14       29.81R WCI  27
$$

             KEY
       WCI = WIND CHILL INDEX
       VSB = VISIBILITY
       HX  = HEAT INDEX
$$



USA.gov is the U.S. government's official web portal to all federal, state and local government web resources and services.